ARCCUBE 1 (RS25S)

Last updated on Wed Oct 29 2025 00:03:10 GMT+0000 (Coordinated Universal Time)

1 57205U 23091AR 25300.91892054 .00259598 00000+0 18344-2 0 9991 2 57205 97.5220 13.9429 0002580 200.8866 159.2293 15.73255592129972
UTC large
Height (km)
Speed (km/s)
/
Latitude / Longitude
Inclination (degrees)
Orbital Period (minutes)
Azimuth
Elevation
Range (km)
Doppler Factor

Next 0 passes for location: London (51.5072 / 0.1276)

Sorry there are no passes over London.